Sunday, December 17, 2017, 10:08 PM EST
Back to Local

KUUU, Newport State Airport

Location: Middletown, RI, United States Lat: 41.533
Local Time: 10:08 PM EST ( 3:08 GMT) Lon: -71.283
Time Zone: US/Eastern Elev: 170 ft

Show me the last for .
Show Decoded

2017-12-17 21:53 METAR KUUU 180253Z AUTO 01004KT 10SM CLR M02/M12 A3025 RMK AO2 SLP244 T10221117
                 58003 =
2017-12-17 20:53 METAR KUUU 180153Z AUTO 34003KT 10SM CLR M02/M12 A3027 RMK AO2 SLP253 T10221117
                 =
2017-12-17 19:53 METAR KUUU 180053Z AUTO 32004KT 10SM CLR M02/M12 A3027 RMK AO2 SLP252 T10221122
                 =
2017-12-17 18:53 METAR KUUU 172353Z AUTO 32005KT 10SM CLR M02/M13 A3026 RMK AO2 SLP247 T10221133
                 11011 21022 51012 =
2017-12-17 17:53 METAR KUUU 172253Z AUTO 30005KT 10SM CLR M02/M14 A3025 RMK AO2 SLP243 T10171144
                 =
2017-12-17 16:53 METAR KUUU 172153Z AUTO 30007KT 10SM CLR M02/M16 A3024 RMK AO2 SLP241 T10171156
                 =
2017-12-17 15:53 METAR KUUU 172053Z AUTO 31005KT 10SM CLR M02/M13 A3022 RMK AO2 SLP235 T10171133
                 55002 =
2017-12-17 14:53 METAR KUUU 171953Z AUTO 33005KT 10SM CLR M01/M13 A3021 RMK AO2 SLP231 T10111133
                 =
2017-12-17 13:53 METAR KUUU 171853Z AUTO 32005KT 10SM CLR M01/M14 A3021 RMK AO2 SLP232 T10111144
                 =
2017-12-17 12:53 METAR KUUU 171753Z AUTO 32008KT 10SM CLR M01/M14 A3023 RMK AO2 SLP237 T10111139
                 11011 21061 58013 =
2017-12-17 11:53 METAR KUUU 171653Z AUTO 34009KT 10SM CLR M02/M13 A3024 RMK AO2 SLP241 T10171128
                 =
2017-12-17 10:53 METAR KUUU 171553Z AUTO 31011KT 10SM CLR M02/M12 A3026 RMK AO2 SLP248 T10221122
                 =
2017-12-17 09:53 METAR KUUU 171453Z AUTO 34009KT 10SM CLR M03/M12 A3026 RMK AO2 SLP250 T10331122
                 53001 =
2017-12-17 08:53 METAR KUUU 171353Z AUTO 33007KT 10SM CLR M04/M11 A3027 RMK AO2 SLP250 T10441111
                 =
2017-12-17 07:53 METAR KUUU 171253Z AUTO 33006KT 10SM CLR M06/M11 A3025 RMK AO2 SLP246 T10611111
                 =
2017-12-17 06:53 METAR KUUU 171153Z AUTO 30006KT 10SM CLR M06/M11 A3026 RMK AO2 SLP248 T10611106
                 11033 21061 51016 =
2017-12-17 05:53 METAR KUUU 171053Z AUTO 30006KT 10SM CLR M06/M11 A3026 RMK AO2 SLP247 T10561106
                 =
2017-12-17 04:53 METAR KUUU 170953Z AUTO 30007KT 10SM CLR M05/M10 A3024 RMK AO2 SLP240 T10501100
                 =
2017-12-17 03:53 METAR KUUU 170853Z AUTO 30008KT 10SM CLR M04/M10 A3021 RMK AO2 SLP232 T10441100
                 51013 =
2017-12-17 02:53 METAR KUUU 170753Z AUTO 31010KT 10SM CLR M04/M10 A3021 RMK AO2 SLP230 T10391100
                 =
2017-12-17 01:53 METAR KUUU 170653Z AUTO 31010KT 10SM CLR M04/M10 A3019 RMK AO2 SLP226 T10391100
                 =
2017-12-17 00:53 METAR KUUU 170553Z AUTO 30013G18KT 10SM CLR M03/M10 A3018 RMK AO2 SLP219
                 T10331100 11006 21033 51014 =
2017-12-16 23:53 METAR KUUU 170453Z AUTO 31012G19KT 10SM CLR M03/M11 A3017 RMK AO2 SLP218
                 T10281111 400111061 =
2017-12-16 22:53 METAR KUUU 170353Z AUTO 30009KT 10SM CLR M02/M09 A3016 RMK AO2 SLP215 T10221089
                 =

Support USWX by starting your Amazon purchase here.